Location: Chervonnoye
(48.6000°N, 34.4000°E)
Time: 09:18:25
(UTC+00:00)

NOAA 15 - Pass Details

Date: 07 December 2021
Orbit: 797 x 812 km, 98.7° (Epoch: 26 January)

Event Time Altitude Azimuth Distance (km) Brightness Sun altitude
Rises 16:10:42 0° 157° (SSE) 3,314 7.7 -22.7°
Reaches altitude 10° 16:13:01 10° 156° (SSE) 2,385 6.9 -23.1°
Maximum altitude 16:18:17 73° 72° (ENE) 844 4.4 -24.0°
Drops below altitude 10° 16:23:33 10° 349° (NNW) 2,393 7.1 -24.8°
Sets 16:25:54 0° 347° (NNW) 3,326 7.9 -25.2°
